#timestamp,LO_Frequency,Hit 
1505008815.9,286046997.6,N
1505008835.7,286047001.1,N
1505008855.5,286046998.6,N
1505008875.4,286046998.2,N
1505008895.2,286047002.0,N
1505008915.0,286046999.9,N
1505008915.9,286046999.9,N
1505008935.8,286047004.3,N
1505008955.6,286047002.0,N
1505008975.4,286047001.8,N
1505008995.3,286047004.0,N
1505009015.1,286047003.1,N
1505009016.0,286047003.1,N
1505009035.8,286046999.7,N
1505009055.6,286047000.4,N
1505009075.5,286047004.2,N
1505009095.3,286047006.9,N
1505009115.1,286047010.1,P
1505009135.9,286047007.5,N
1505009155.7,286047005.9,N
1505009175.5,286047002.7,N
1505009195.4,286047000.0,N
1505009215.2,286046999.7,N
1505009235.0,286047003.7,N
1505009235.9,286047003.7,N
1505009255.8,286047004.6,N
1505009275.6,286047005.8,N
1505009295.4,286047001.4,N
1505009315.3,286047004.2,N
1505009335.1,286047002.8,N
1505009336.0,286047002.8,N
1505009355.8,286046999.7,N
1505009375.7,286046998.9,N
1505009395.5,286046998.8,N
1505009415.3,286046998.8,N
1505009435.1,286047000.4,N
1505009455.9,286047002.3,N
1505009475.7,286047003.2,N
1505009495.5,286047003.7,N
1505009515.4,286047002.8,N
1505009535.2,286047000.4,N
1505009555.0,286047000.9,N
1505009555.9,286047000.9,N
1505009575.8,286047002.7,N
1505009595.6,286047000.2,N
1505009615.4,286047000.2,N
1505009635.3,286047002.6,N
1505009655.1,286047004.3,N
1505009656.0,286047004.3,N
1505009675.8,286047001.7,N
1505009695.7,286047003.2,N
1505009715.5,286046999.9,N
1505009735.3,286047000.4,N
1505009755.2,286046998.1,N
1505009775.9,286047000.3,N
1505009795.7,286047003.9,N
1505009815.5,286047004.7,N
1505009835.4,286047005.9,P
1505009855.2,286047001.9,N
1505009875.0,286047001.9,N
1505009876.0,286047001.9,N
1505009895.8,286047001.3,N
1505009915.6,286047004.0,N
1505009935.5,286047006.5,P
1505009955.3,286047002.9,N
1505009975.1,286047001.6,N
1505009995.8,286047002.3,N
1505010015.7,286047002.6,N
1505010035.5,286046999.1,N
1505010055.3,286046998.7,N
1505010075.2,286047001.2,N
1505010095.0,286047000.6,N
1505010095.9,286047000.6,N
1505010115.7,286046999.4,N
1505010135.6,286047002.4,N
1505010155.4,286047003.9,N
1505010175.2,286047002.2,N
1505010195.1,286047002.5,N
1505010196.0,286047002.5,N
1505010215.8,286047000.3,N
1505010235.6,286046998.2,N
1505010255.5,286046998.8,N
1505010275.3,286046998.7,N
1505010295.1,286046997.2,N
1505010315.8,286046999.3,N
1505010335.7,286046999.9,N
1505010355.5,286047001.3,N
1505010375.3,286047000.9,N
1505010395.2,286046996.5,N
1505010415.9,286047000.7,N
1505010435.7,286047003.8,N
1505010455.6,286047003.9,N
1505010475.4,286047001.7,N
1505010495.2,286047003.8,N
1505010515.1,286047002.1,N
1505010516.0,286047002.1,N
1505010535.8,286047002.6,N
1505010555.6,286047004.1,N
1505010575.5,286047001.4,N
1505010595.3,286047002.3,N
1505010615.1,286047003.4,N
1505010635.9,286047007.4,P
1505010655.7,286047005.5,N
1505010675.5,286047009.1,P
1505010695.3,286047004.9,N
1505010715.2,286047008.5,P
1505010735.0,286046999.8,N
1505010735.9,286046999.8,N
1505010755.8,286047002.1,N
1505010775.6,286047001.0,N
1505010795.4,286046998.4,N
1505010815.2,286046997.6,N
1505010835.1,286046995.3,N
1505010836.0,286046995.3,N
1505010855.8,286046997.1,N
1505010875.6,286047000.6,N
1505010895.5,286046998.5,N
1505010915.3,286046997.6,N
1505010935.1,286046996.0,N
1505010955.9,286046996.0,N
1505010975.7,286046997.1,N
1505010995.5,286046998.5,N
1505011015.4,286046999.5,N
1505011035.2,286046998.4,N
1505011055.0,286047002.3,N
1505011055.9,286047002.3,N
1505011075.8,286047002.2,N
1505011095.6,286047000.4,N
1505011115.4,286047001.2,N
1505011135.3,286046998.3,N
1505011155.1,286046999.8,N
1505011156.0,286046999.8,N
1505011175.8,286047000.3,N
1505011195.6,286047000.0,N
1505011215.5,286047002.5,N
1505011235.3,286046999.8,N
1505011255.1,286046996.9,N
1505011275.9,286046995.0,N
1505011295.7,286046999.2,N
1505011315.5,286047000.4,N
1505011335.4,286046998.8,N
1505011355.2,286046994.9,N
1505011375.0,286046998.6,N
1505011375.9,286046998.6,N
1505011395.8,286047000.5,N
1505011415.6,286047002.2,N
1505011435.4,286047000.9,N
1505011455.3,286046998.7,N
1505011475.1,286047000.8,N
1505011476.0,286047000.8,N
1505011495.8,286047003.9,N
1505011515.7,286047004.8,N
1505011535.5,286047007.1,P
1505011555.3,286047006.7,N
1505011575.2,286047005.0,N
1505011595.9,286047007.2,N
1505011615.7,286047007.8,N
1505011635.6,286047010.4,P
1505011655.4,286047004.1,N
1505011675.2,286047000.5,N
1505011695.1,286046999.1,N
1505011696.0,286046999.1,N
1505011715.8,286047000.3,N
1505011735.6,286047002.5,N
1505011755.5,286046998.3,N
1505011775.3,286046998.7,N
1505011795.1,286047002.0,N
1505011815.8,286047000.9,N
1505011835.7,286047000.2,N
1505011855.5,286047001.2,N
1505011875.3,286046996.8,N
1505011895.2,286046997.1,N
1505011915.9,286046997.6,N
1505011935.7,286046998.0,N
1505011955.6,286046995.0,N
1505011975.4,286046999.3,N
1505011995.2,286046996.8,N
1505012015.1,286046995.7,N
1505012016.0,286046995.7,N
1505012035.8,286046995.0,N
1505012055.6,286046999.7,N
1505012075.5,286047003.7,N
1505012095.3,286047008.4,N
1505012115.1,286047006.7,N
1505012135.8,286047006.2,N
1505012155.7,286047003.3,N
1505012175.5,286047000.9,N
1505012195.3,286047002.4,N
1505012215.2,286047004.0,N
1505012235.9,286047002.0,N
1505012255.7,286047000.1,N
1505012275.6,286047000.1,N
1505012295.4,286046998.8,N
1505012315.2,286046999.5,N
1505012335.1,286046999.4,N
1505012336.0,286046999.4,N
1505012355.8,286046997.8,N
1505012375.6,286046997.1,N
1505012395.4,286046996.1,N
